AEHF-4 (USA 288)

Last updated on Sun Jul 06 2025 00:02:46 GMT+0000 (Coordinated Universal Time)

1 43651U 18079A 25186.55151154 -.00000258 00000+0 00000+0 0 9997 2 43651 1.4647 347.4813 0046798 4.5587 62.7844 1.00272389 24825
UTC large
Height (km)
Speed (km/s)
/
Latitude / Longitude
Inclination (degrees)
Orbital Period (minutes)
Azimuth
Elevation
Range (km)
Doppler Factor

Next 0 passes for location: London (51.5072 / 0.1276)

Sorry there are no passes over London.